Location: Stockholm
(59.3293°N, 18.0686°E)
Time: 09:11:57
(UTC+02:00)

Envisat - Visible Passes

Search period start: 18 October 2017 00:00
Search period end: 28 October 2017 00:00
Orbit: 764 x 766 km, 98.2° (Epoch: 17 October)

Date Brightness Start Highest point End Pass type
(mag) Time Alt. Az. Time Alt. Az. Time Alt. Az.
18 Oct 3.7 18:51:27 10° ESE 18:55:56 33° NE 19:00:29 10° N visible
18 Oct 3.4 20:31:40 23° S 20:34:45 62° WSW 20:39:50 10° NNW visible
18 Oct 5.6 22:12:07 10° WSW 22:14:51 14° W 22:17:35 10° NW visible
19 Oct 4.3 18:15:45 10° E 18:19:35 22° NE 18:23:26 10° N visible
19 Oct 2.9 19:54:41 22° SSE 19:57:59 78° ENE 20:03:06 10° NNW visible
19 Oct 5.0 21:34:54 16° SW 21:37:35 25° W 21:41:45 10° NW visible
20 Oct 3.3 19:17:42 17° SE 19:21:22 46° ENE 19:26:15 10° N visible
20 Oct 4.1 20:57:56 24° SSW 21:00:30 42° W 21:05:22 10° NNW visible
21 Oct 3.9 18:40:44 11° ESE 18:44:56 29° NE 18:49:17 10° N visible
21 Oct 3.1 20:20:56 29° S 20:23:37 73° WSW 20:28:44 10° NNW visible
21 Oct 5.5 22:01:09 13° WSW 22:03:33 17° W 22:06:50 10° NW visible
22 Oct 4.4 18:05:02 10° E 18:08:37 20° NE 18:12:12 10° N visible
22 Oct 2.9 19:43:57 25° SE 19:46:53 67° ENE 19:51:58 10° NNW visible
22 Oct 4.7 21:24:10 21° SW 21:26:21 29° W 21:30:46 10° NNW visible
23 Oct 3.5 19:06:58 18° ESE 19:10:19 40° ENE 19:15:05 10° N visible
23 Oct 3.8 20:47:11 31° SSW 20:49:20 50° W 20:54:18 10° NNW visible
23 Oct 5.8 22:28:08 10° W 22:29:38 11° WNW 22:31:08 10° WNW visible
24 Oct 4.0 18:29:58 11° ESE 18:33:55 26° NE 18:38:05 10° N visible
24 Oct 2.9 20:10:12 34° SSE 20:12:29 85° WSW 20:17:38 10° NNW visible
24 Oct 5.2 21:50:25 17° WSW 21:52:18 20° W 21:56:00 10° NW visible
25 Oct 4.5 17:54:22 10° E 17:57:39 18° NE 18:00:58 10° N visible
25 Oct 3.0 19:33:13 27° SE 19:35:48 57° ENE 19:40:49 10° NNW visible
25 Oct 4.4 21:13:26 27° SW 21:15:08 34° W 21:19:46 10° NNW visible
26 Oct 3.6 18:56:13 18° ESE 18:59:18 35° ENE 19:03:53 10° N visible
26 Oct 3.5 20:36:26 38° SSW 20:38:10 58° WSW 20:43:13 10° NNW visible
26 Oct 5.6 22:16:39 12° W 22:18:19 13° W 22:20:46 10° NW visible
27 Oct 4.2 18:19:13 11° E 18:22:55 23° NE 18:26:52 10° N visible
27 Oct 2.9 19:59:27 39° SSE 20:01:22 82° ENE 20:06:30 10° NNW visible
27 Oct 5.0 21:39:39 21° WSW 21:41:02 23° W 21:45:05 10° NW visible
